GEFSSE_500_meanwind_228.txt.gz
Wind_Speed
9 9 9 9 9 8 8 8 9 8 8 7 7 6 6 6 6 5 6 6 6 6 6 6 6 6 6 6 6 7 7 7 7 7 8 8 8 8 8 8 8 9 8
10 10 9 9 9 8 8 9 9 9 9 9 8 7 7 7 7 6 6 6 7 7 7 7 7 7 7 7 7 7 8 8 8 8 8 8 8 8 8 9 9 10 10
10 11 10 10 10 10 10 10 10 10 10 10 8 8 8 8 8 8 7 7 7 8 8 8 8 9 8 8 8 8 8 8 9 9 9 9 9 10 9 10 11 10 10
11 12 12 11 11 11 11 11 11 11 11 10 10 10 10 9 9 9 9 8 8 9 9 9 9 10 10 10 10 9 9 9 9 9 9 10 11 11 11 11 11 11 12
13 13 12 12 12 12 12 12 12 12 12 12 12 12 11 11 11 10 10 10 10 10 10 10 10 10 10 10 11 11 11 10 10 10 10 10 12 12 12 12 12 13 13
13 13 13 13 13 13 13 13 13 13 13 13 13 12 12 12 12 12 12 12 12 11 11 11 11 10 10 11 11 11 11 11 11 11 11 11 12 13 13 13 13 13 13
12 12 13 14 14 14 14 15 14 14 14 13 13 13 13 13 13 13 13 13 13 13 12 12 11 11 11 11 12 12 12 13 13 13 12 12 13 14 13 14 14 14 13
12 13 14 15 16 16 16 15 15 15 14 14 14 13 14 14 14 14 14 14 14 14 13 13 13 13 12 12 13 13 14 14 14 14 13 13 14 14 14 14 14 14 14
14 14 16 16 16 16 16 16 16 16 16 15 15 14 14 14 14 15 16 15 15 15 14 14 14 14 14 14 14 14 15 15 15 15 14 15 15 14 14 14 14 14 15
16 16 18 17 17 16 16 17 17 18 17 16 16 16 16 15 15 16 16 17 17 16 16 16 16 16 15 15 16 16 16 16 16 16 15 16 15 15 15 15 15 15 16
18 18 18 18 17 18 18 18 18 18 18 17 17 18 17 17 16 17 17 17 17 17 17 17 17 17 17 17 17 17 17 17 16 16 16 16 16 16 16 15 16 16 16
19 19 19 19 18 19 20 20 19 19 18 18 18 18 18 18 17 17 18 18 18 18 18 18 18 18 18 19 19 19 19 18 17 17 17 17 17 17 16 16 16 16 16
20 20 20 20 20 21 20 20 19 19 20 19 19 19 18 19 19 19 19 19 20 20 20 20 20 19 20 20 20 20 20 19 19 19 19 19 19 18 18 17 17 17 17
21 21 21 21 20 21 21 20 20 20 20 19 19 19 19 20 20 20 20 20 21 21 20 20 20 20 20 21 21 20 20 20 20 20 20 20 21 20 19 18 18 19 18
21 21 21 21 21 21 21 21 21 20 20 20 21 21 21 20 20 20 20 20 20 20 20 19 19 19 20 21 21 21 21 22 22 21 21 22 22 21 20 20 20 20 19
21 21 21 21 21 21 21 21 21 21 21 20 21 20 19 18 19 19 20 20 20 20 19 19 19 19 19 20 21 21 21 22 22 22 22 22 22 22 22 21 21 20 21
21 21 21 21 21 21 22 22 21 22 22 21 20 19 19 19 19 20 20 20 20 20 19 19 20 20 19 20 20 21 21 22 22 23 23 23 23 23 22 22 23 22 22
21 21 21 21 22 22 23 23 23 22 21 21 21 21 21 20 20 20 21 21 21 20 20 20 21 21 21 20 21 21 21 22 23 23 23 23 23 23 23 23 23 23 23
21 21 21 22 22 23 23 22 22 21 20 21 21 21 22 21 21 21 22 21 21 20 20 21 21 21 23 22 22 22 21 22 23 23 24 24 24 24 24 24 24 24 23
22 21 21 21 22 22 23 22 21 21 21 22 22 22 22 22 22 22 22 22 22 21 21 22 22 22 23 23 23 23 22 22 23 23 24 24 24 24 24 24 24 24 24
22 22 22 22 23 23 23 23 23 23 23 23 23 23 23 23 23 23 23 23 23 22 22 23 23 23 23 24 24 24 24 24 23 24 24 24 24 24 24 24 24 24 24
23 23 23 23 23 23 24 24 24 25 25 25 25 24 24 24 23 24 24 24 24 23 22 22 22 22 22 24 24 24 24 25 24 24 24 24 24 25 25 24 24 24 24
24 24 24 24 24 25 25 25 26 26 26 26 25 25 25 25 24 24 24 24 24 23 23 23 23 22 22 22 23 24 24 24 24 24 25 24 24 24 23 24 24 23 23
24 24 25 25 25 26 26 26 26 26 25 25 24 24 25 25 25 25 25 25 25 24 24 24 24 23 23 22 23 24 24 24 24 24 24 25 25 24 24 24 24 24 24
25 26 26 26 26 26 26 25 25 25 24 24 23 24 24 25 25 25 25 25 25 24 24 24 24 24 23 23 23 23 23 24 24 25 25 25 25 25 25 24 24 24 24
26 26 26 26 26 25 25 24 24 24 24 23 23 23 24 25 25 25 24 24 24 24 24 25 25 24 24 24 24 23 24 24 24 24 25 25 26 26 26 25 25 25 25

GEFSSE_500_meanwind_234.txt.gz
Wind_Speed
8 7 7 7 8 8 8 8 8 8 9 10 10 9 9 9 8 8 8 8 8 8 8 8 8 9 9 8 8 8 7 7 8 8 8 8 9 8 9 9 8 8 9
9 8 7 8 9 9 8 8 8 9 9 10 10 10 10 10 10 9 9 9 9 9 8 9 9 9 9 9 9 8 8 8 8 9 9 9 9 9 9 9 9 9 9
10 9 9 9 9 9 8 9 9 10 10 11 11 11 11 11 11 11 10 10 10 10 10 9 10 10 10 10 10 9 9 9 9 8 8 9 9 9 10 10 10 9 9
11 11 10 10 10 9 9 9 9 10 11 11 11 12 12 12 12 11 11 11 11 10 11 11 11 11 11 11 11 11 10 10 9 10 9 9 9 9 10 10 11 11 10
12 12 10 10 10 9 9 9 10 10 11 11 11 12 13 12 12 12 12 12 11 11 11 11 11 11 12 12 12 12 11 11 11 11 11 10 10 10 10 11 11 12 11
12 12 11 10 10 10 10 11 11 11 11 12 12 12 13 12 12 12 11 12 12 12 12 12 12 12 12 12 12 12 12 12 12 11 12 12 12 11 11 12 12 13 13
13 12 12 11 11 11 11 12 12 12 12 12 12 12 13 12 13 12 12 12 13 13 13 13 13 13 13 13 13 13 13 13 13 13 13 13 13 13 13 13 13 13 13
13 12 11 12 12 12 13 13 14 13 13 13 13 14 14 14 14 13 13 13 13 14 14 14 14 14 14 14 14 14 14 15 14 14 15 14 14 15 14 14 14 14 14
13 12 11 12 13 13 13 14 14 14 15 15 14 15 16 16 15 14 14 14 14 14 14 14 15 15 15 15 15 15 15 16 15 16 15 16 15 15 15 15 15 15 15
13 12 11 12 13 13 14 15 15 14 15 15 15 16 16 17 16 15 15 15 15 15 16 16 16 16 16 16 16 16 17 17 17 17 17 17 16 15 15 15 15 16 16
13 12 12 13 14 14 14 15 15 15 15 15 15 16 16 15 15 15 15 16 16 17 17 17 18 17 17 17 17 16 16 17 17 17 18 18 17 16 16 16 16 16 16
13 12 13 14 15 15 16 16 16 16 16 16 16 16 15 15 15 16 16 16 17 17 17 18 18 18 18 18 18 18 17 17 17 18 18 19 18 17 17 17 17 17 17
14 14 14 15 16 16 16 16 17 17 15 15 15 15 15 15 15 16 16 16 16 17 17 18 18 19 19 19 19 19 18 18 18 19 19 19 20 19 18 17 17 17 18
15 16 15 17 17 17 17 17 18 17 16 15 16 16 16 16 16 16 16 16 15 16 16 16 18 18 19 20 20 20 19 19 20 19 20 20 20 20 19 18 18 18 18
16 16 16 17 17 17 18 18 17 17 16 16 16 16 16 16 16 16 16 16 16 16 17 17 17 18 18 19 20 20 20 20 20 20 20 20 21 21 21 20 20 19 19
17 17 17 16 17 18 19 18 17 16 16 15 15 16 16 15 15 16 16 17 17 17 17 17 18 18 18 19 19 19 20 21 21 21 21 21 21 22 22 22 22 21 20
17 17 17 18 18 18 18 18 18 17 17 16 16 16 16 15 15 15 15 16 16 17 17 18 18 18 19 19 20 20 20 20 21 21 22 22 22 22 23 23 23 22 22
17 18 19 19 19 19 19 18 18 18 18 17 16 17 17 16 16 16 16 16 17 17 17 18 18 19 19 20 21 21 21 21 21 22 22 21 22 22 23 23 24 23 23
19 19 20 20 20 20 19 18 18 18 18 18 17 18 18 18 18 18 18 18 18 18 18 18 18 19 19 20 20 20 21 21 21 22 23 23 23 23 23 24 24 24 24
21 21 20 21 21 21 20 20 20 19 19 18 18 19 19 19 19 19 20 20 19 19 19 19 19 19 19 20 21 20 21 21 22 22 23 23 23 23 23 23 24 24 25
22 21 22 22 22 22 21 21 21 20 20 20 21 21 21 21 21 21 21 21 21 20 20 19 19 20 20 20 20 20 21 22 22 22 23 23 23 23 24 24 24 25 25
22 22 22 23 23 22 21 22 21 22 22 22 22 22 22 23 23 23 22 22 22 22 21 21 21 20 20 20 20 20 20 21 22 22 23 24 24 24 24 24 24 25 25
22 22 23 23 23 22 22 22 22 23 23 23 23 23 24 24 23 23 23 23 23 23 22 21 22 21 21 21 21 21 20 20 20 22 23 24 24 24 24 24 24 25 26
23 22 23 23 22 22 23 23 23 22 23 23 23 23 24 24 23 23 23 23 23 24 23 23 23 22 22 22 22 22 22 22 22 22 23 24 24 24 24 25 26 26 26
24 23 24 23 23 23 23 24 24 24 23 22 22 23 23 24 23 23 23 24 24 25 25 24 24 24 24 23 23 23 23 23 23 23 23 24 25 25 25 25 25 26 27
23 24 24 23 23 22 23 24 24 24 23 22 22 23 23 23 23 23 23 24 25 25 24 25 25 25 25 25 24 24 24 24 24 24 24 24 24 26 25 25 25 26 26

GEFSSE_500_meanwind_240.txt.gz
Wind_Speed
10 10 9 9 8 8 7 7 7 8 7 7 7 7 7 8 8 8 7 6 6 6 6 6 6 6 5 5 5 5 5 5 5 6 7 6 6 7 7 8 9 9 9
10 10 9 9 9 8 8 7 7 8 7 7 7 7 8 8 8 8 8 7 7 7 7 7 7 6 6 6 6 6 6 5 5 6 6 7 7 6 7 7 8 9 9
10 10 9 9 9 8 8 8 8 8 8 8 8 8 8 8 8 9 8 8 8 8 8 7 7 7 7 6 7 7 6 6 6 6 6 7 7 6 6 7 8 9 9
10 10 10 10 9 8 8 9 9 9 9 8 8 8 8 9 9 10 9 9 9 9 9 8 8 7 7 7 8 8 8 8 8 7 8 8 8 7 7 7 8 9 9
11 10 10 10 10 9 8 9 9 10 10 10 10 10 10 10 10 10 10 10 10 10 10 9 9 8 8 8 8 9 8 8 8 9 9 9 9 8 9 9 8 9 9
11 11 10 10 10 10 10 10 10 11 11 12 12 12 11 11 11 11 11 12 11 11 11 11 9 9 9 9 9 9 9 9 10 11 11 10 10 9 10 10 9 10 10
11 11 11 10 10 10 10 10 11 12 12 13 13 13 13 13 12 12 12 13 13 12 12 12 11 10 10 10 10 10 10 11 11 12 12 12 12 11 11 11 11 11 11
12 12 12 12 11 11 11 11 12 13 13 14 13 13 14 14 13 13 13 13 14 13 13 13 12 12 12 12 11 12 12 12 12 12 12 13 13 13 12 12 13 12 12
13 13 13 13 12 11 11 12 12 13 14 14 15 14 14 15 14 14 14 14 14 14 14 14 14 13 13 13 12 12 13 13 12 13 13 13 13 13 13 14 14 14 14
13 13 13 13 12 12 11 12 13 14 14 15 15 15 15 15 15 15 15 14 15 15 15 15 14 14 14 14 13 13 14 14 14 14 14 14 14 14 14 15 15 14 15
14 13 12 12 13 12 11 12 13 14 14 15 15 16 16 16 16 16 15 15 15 15 15 15 14 14 14 14 14 14 15 15 15 15 15 15 15 15 15 16 16 16 15
14 13 13 13 13 13 12 13 13 14 14 16 16 17 16 16 16 15 15 16 15 15 15 15 15 14 15 15 15 15 15 16 16 15 16 15 15 15 16 17 17 17 17
14 14 13 13 13 13 13 13 13 14 15 16 16 16 16 17 17 17 16 16 16 16 16 15 15 15 15 15 15 16 16 16 16 16 16 16 16 16 16 17 18 18 18
14 14 14 13 13 13 13 13 14 15 15 16 16 16 16 17 17 16 16 15 16 16 16 16 16 15 15 15 16 16 16 16 16 16 17 17 17 16 17 17 18 18 19
14 15 15 15 14 14 14 14 15 16 16 16 16 15 16 16 16 15 14 15 16 16 16 16 16 16 16 16 16 16 16 17 16 16 17 18 18 18 18 19 19 19 19
15 15 15 15 14 14 15 15 16 16 17 16 16 16 16 16 16 16 16 16 16 16 17 17 17 17 17 18 18 18 17 18 18 18 19 19 19 20 20 19 20 20 21
15 15 15 14 15 15 16 16 17 17 17 17 17 17 17 17 17 17 17 16 16 17 17 18 18 19 19 19 19 19 18 18 19 20 20 20 20 21 21 21 21 21 22
16 16 16 16 16 16 16 16 17 18 18 18 18 18 18 17 18 18 17 17 17 17 18 18 19 20 20 20 19 19 19 20 20 20 21 21 21 21 22 22 22 23 23
18 18 18 18 17 17 18 19 19 20 19 19 19 19 18 19 19 18 18 18 18 19 19 19 20 21 21 21 20 20 20 21 20 20 21 22 23 22 23 24 24 24 25
20 20 20 18 18 20 20 20 20 20 19 19 20 19 19 19 19 19 19 19 19 20 20 21 22 22 22 22 21 21 21 22 22 22 22 23 24 24 24 25 25 25 25
21 20 20 20 20 21 20 20 20 19 19 19 20 20 20 20 21 20 21 21 21 21 22 23 23 23 23 22 23 22 22 23 23 24 24 24 24 24 25 26 26 26 26
20 20 21 21 21 21 21 20 19 19 19 20 20 20 20 21 21 22 22 22 22 22 23 23 24 24 23 23 23 23 23 23 23 24 24 25 24 24 25 26 27 27 27
19 20 21 21 22 22 21 21 20 20 20 20 20 20 21 22 22 23 23 23 22 22 23 23 24 24 24 24 23 23 23 23 24 25 26 25 24 25 25 26 26 26 27
20 21 21 22 22 22 21 21 21 20 20 20 21 21 21 22 23 23 24 23 24 24 24 24 24 24 25 25 25 25 25 25 25 25 25 25 25 25 25 25 26 27 27
20 20 21 22 21 21 21 21 21 21 21 21 21 21 21 21 22 22 23 24 24 24 24 25 25 25 25 26 26 26 26 26 26 26 26 26 26 27 26 26 26 27 27
20 21 21 21 22 22 22 22 22 22 22 22 22 22 21 21 21 22 23 24 25 26 26 26 26 25 26 26 27 27 27 26 27 27 27 27 27 27 27 26 26 26 26

GEFSSE_500_meanwind_246.txt.gz
Wind_Speed
6 6 6 6 5 5 5 5 4 4 3 3 3 2 2 2 1 1 2 2 1 2 2 2 3 3 3 3 3 4 6 5 5 6 5 4 5 7 7 8 8 8 8
6 6 6 6 6 6 6 5 5 5 5 4 4 3 3 2 2 2 3 2 2 2 2 3 3 4 4 4 4 4 6 6 5 6 7 6 6 6 7 8 9 8 9
6 6 6 6 6 6 7 6 6 5 5 5 4 4 4 4 3 3 4 3 3 3 3 3 4 4 5 5 4 5 5 6 6 6 7 6 6 6 6 7 8 9 9
7 6 7 7 7 7 7 7 6 6 6 5 5 5 5 5 5 5 5 5 5 5 4 4 4 5 5 5 5 6 6 7 7 7 7 7 6 6 7 7 8 10 10
7 7 7 8 7 7 7 8 7 6 6 6 6 6 7 7 7 7 7 6 6 6 5 5 5 6 6 6 7 7 7 8 8 9 8 7 7 7 7 7 8 10 10
8 8 8 8 8 8 8 9 8 7 7 7 7 7 8 8 8 8 8 8 7 7 7 7 7 7 7 7 8 8 8 8 8 9 9 9 8 8 8 8 9 10 10
9 8 8 9 9 9 9 9 9 8 8 8 8 8 8 9 9 9 9 9 9 8 8 8 8 8 8 8 8 9 9 9 8 9 9 10 10 10 10 9 9 10 11
10 10 10 10 10 10 10 10 9 9 9 9 9 9 9 9 10 11 11 10 10 10 10 10 9 10 10 9 9 9 9 9 9 10 11 11 11 12 11 11 10 11 11
10 10 10 10 10 10 10 10 10 9 10 9 9 9 9 10 10 11 11 11 11 11 11 11 10 11 11 10 10 10 10 10 11 11 12 12 12 12 12 12 11 11 11
11 11 11 11 10 10 11 11 11 11 10 10 10 10 10 10 11 11 11 12 12 12 12 12 12 12 12 11 11 12 12 12 12 11 12 12 12 12 13 13 12 12 12
12 13 12 11 12 11 11 12 12 11 11 11 11 11 11 11 11 11 11 12 12 13 13 13 13 13 13 12 12 13 12 12 12 12 12 12 12 12 12 13 13 13 14
14 14 13 12 12 12 11 11 11 12 12 12 12 12 12 12 12 12 12 12 12 13 14 14 14 14 14 13 13 13 13 13 13 13 13 13 13 13 13 13 13 13 14
15 14 13 12 12 12 12 12 13 13 13 13 12 12 12 13 14 14 13 13 13 13 14 15 15 15 14 14 13 13 14 14 14 14 13 13 14 14 14 14 14 14 14
14 13 12 12 12 12 12 13 13 13 13 14 13 13 13 13 14 14 14 14 14 14 14 15 15 15 15 15 14 14 14 15 15 15 15 15 15 16 16 16 16 16 16
14 13 12 13 13 13 13 14 13 14 14 14 15 14 13 14 14 15 14 15 14 15 15 15 16 16 16 16 15 15 15 15 16 16 16 16 17 17 18 17 17 18 18
15 14 13 14 14 14 14 14 14 15 15 15 14 14 14 14 15 15 15 15 15 15 16 17 16 17 16 16 16 17 16 16 17 17 18 18 18 18 19 19 19 19 19
15 15 15 14 13 13 14 15 16 16 15 15 15 15 16 16 16 16 16 16 16 16 16 16 16 17 17 17 18 18 18 18 18 19 19 19 19 19 20 20 21 20 20
16 16 15 15 14 14 15 16 17 17 16 16 16 17 17 18 18 17 17 16 16 16 17 17 17 17 18 19 19 20 20 19 19 20 20 20 20 21 21 21 22 22 21
16 16 15 15 15 15 16 17 17 17 17 17 17 18 17 18 18 18 18 18 18 18 18 18 17 18 19 20 20 21 21 21 21 21 21 21 21 21 22 22 23 23 22
17 16 16 16 16 16 16 17 17 17 17 18 18 18 18 18 18 19 19 18 19 19 18 18 18 19 20 21 22 22 22 23 22 22 21 22 22 22 23 23 23 23 23
17 17 17 17 17 17 17 17 18 18 18 19 19 19 19 19 19 20 19 19 19 19 19 19 19 20 21 22 23 23 24 24 24 23 23 23 23 23 23 24 24 24 24
18 18 18 19 19 19 19 19 20 20 20 21 21 21 20 20 21 21 20 20 20 20 20 21 21 21 21 22 22 23 23 24 24 24 24 24 24 24 24 24 24 24 25
19 19 19 19 20 21 20 20 21 22 22 22 21 21 21 21 21 22 21 21 21 21 21 22 22 21 21 21 21 21 22 23 24 25 25 25 25 26 26 26 26 26 26
20 20 21 21 21 22 22 22 22 22 22 22 22 22 22 22 22 21 22 22 22 22 22 21 22 21 21 21 22 22 23 24 25 25 26 26 26 27 27 27 27 27 28
21 21 21 21 22 22 22 23 22 22 22 22 23 22 22 22 22 21 21 22 22 23 22 23 24 24 24 23 23 23 24 25 26 27 27 27 28 28 28 27 27 28 29
22 21 22 22 22 22 22 23 23 23 22 22 22 22 21 21 21 20 21 21 22 23 23 24 25 25 25 25 25 25 26 27 27 28 28 29 29 29 28 28 28 28 28

GEFSSE_500_meanwind_252.txt.gz
Wind_Speed
7 7 6 6 7 7 6 6 6 6 6 5 5 4 3 3 3 4 4 4 4 4 3 3 3 3 3 4 4 5 6 5 5 5 5 5 5 6 6 5 5 6 6
8 7 7 7 7 7 7 7 7 7 7 6 5 5 4 4 4 4 4 4 4 4 4 4 4 4 4 4 5 5 6 6 6 6 6 6 6 6 6 6 6 7 7
9 8 8 8 8 8 8 8 8 8 8 7 6 6 6 5 5 5 5 5 5 5 5 5 5 5 5 5 5 5 6 6 6 7 7 7 6 6 7 7 7 7 7
9 9 9 9 9 9 9 9 8 9 9 8 7 7 7 7 6 7 6 6 6 6 6 6 6 6 6 5 5 6 6 7 7 7 8 8 8 7 7 7 8 7 7
10 10 10 10 9 9 9 9 9 9 10 9 8 8 8 8 8 8 8 7 7 7 7 7 7 7 6 6 6 7 7 6 7 8 8 9 9 7 7 7 8 8 7
11 10 11 11 10 10 10 10 10 10 9 9 9 9 9 9 9 9 8 8 8 8 8 8 8 7 7 7 7 8 8 8 8 8 9 8 8 8 8 8 9 9 8
12 11 11 11 11 11 11 10 10 11 11 10 10 9 9 9 9 9 9 9 9 9 8 8 9 9 9 9 9 9 8 8 9 8 9 8 8 8 9 9 8 9 9
12 12 12 11 12 12 12 12 12 12 12 11 10 10 10 9 9 9 9 9 9 9 9 9 9 9 10 10 10 10 9 9 9 9 9 9 9 8 9 9 9 9 9
13 13 13 13 13 13 13 13 12 12 12 12 11 10 10 11 11 10 10 10 10 10 10 10 9 10 10 10 11 10 10 10 10 9 10 10 9 9 9 10 10 10 10
13 13 13 13 14 14 13 13 13 12 12 12 12 11 12 12 12 11 11 11 11 11 11 10 10 10 11 11 12 12 12 11 11 10 10 10 10 10 9 10 11 11 11
15 15 14 15 15 15 14 13 13 12 12 13 13 13 13 13 13 13 13 13 12 12 12 12 11 12 12 12 13 13 13 12 12 11 12 11 11 10 10 10 10 11 11
16 16 16 16 16 14 13 13 12 12 13 13 14 14 14 14 14 14 14 13 13 14 14 14 14 14 14 14 13 13 13 13 13 13 12 12 12 12 11 11 10 11 12
17 17 17 17 17 16 15 14 13 13 13 14 15 15 15 15 14 14 14 14 14 14 15 15 15 15 15 15 14 14 14 14 13 13 13 13 13 13 13 13 12 12 13
18 18 18 18 18 17 16 15 15 15 15 15 16 16 16 15 14 15 15 15 15 15 15 15 15 16 16 15 15 16 15 14 13 13 14 14 14 14 14 14 14 14 14
18 19 19 18 18 17 17 16 16 16 16 16 16 16 16 15 15 16 16 16 16 16 16 16 16 16 16 16 16 16 16 15 15 15 15 15 15 15 15 15 16 16 16
19 19 20 19 19 18 17 18 18 17 17 17 17 17 16 16 16 16 16 16 16 16 16 16 16 16 17 17 17 17 17 16 15 16 16 17 18 17 17 17 17 18 18
19 20 20 19 19 18 17 18 18 19 18 18 18 17 17 17 17 16 16 17 17 17 16 16 16 17 17 17 18 18 18 17 17 18 18 18 18 18 19 19 19 19 19
18 19 19 19 18 18 17 17 19 19 19 19 19 18 18 19 18 17 17 17 17 17 18 18 18 18 17 18 19 19 19 19 19 20 20 20 20 20 20 20 20 20 21
18 19 19 18 19 18 18 18 18 19 19 19 18 19 19 19 19 18 18 18 18 19 19 19 19 19 19 19 20 20 20 21 21 22 21 21 21 21 21 22 22 22 22
18 19 19 19 19 19 18 18 19 20 20 20 20 19 19 19 19 19 19 19 19 19 20 20 21 21 21 21 22 21 21 21 22 23 23 22 21 22 22 23 23 23 24
19 19 20 20 20 19 18 19 20 20 20 20 20 19 19 19 20 21 21 21 21 20 20 21 22 22 22 23 23 22 22 21 22 23 24 23 23 23 23 23 24 25 25
19 20 20 21 21 20 19 20 20 20 20 20 20 20 20 21 22 23 23 23 23 22 22 22 22 22 23 24 24 24 23 22 23 23 25 25 25 24 24 23 24 25 26
20 21 21 21 21 20 20 21 21 21 21 21 20 21 22 22 23 23 24 24 24 23 22 22 22 22 22 23 24 24 24 24 24 25 25 26 26 26 25 25 24 25 27
21 21 20 21 22 21 21 22 22 22 22 22 22 23 23 23 24 24 25 24 24 23 23 23 22 23 23 23 24 24 25 25 25 25 25 26 27 26 26 26 26 26 26
21 21 21 22 22 21 22 23 23 23 22 23 23 23 23 23 24 25 25 24 24 24 24 24 23 23 24 24 25 25 26 26 26 26 26 26 27 27 27 27 27 27 27
22 22 22 22 22 22 22 23 24 23 23 23 23 23 23 24 24 25 25 24 24 24 24 25 25 25 26 26 26 26 26 26 27 27 27 28 28 28 28 28 28 28 28

GEFSSE_500_meanwind_258.txt.gz
Wind_Speed
7 7 8 8 8 8 7 7 7 7 7 7 7 6 6 5 5 4 4 4 4 3 3 3 4 4 4 5 5 5 5 5 5 6 6 6 8 9 8 9 8 7 7
8 8 8 8 8 8 8 8 8 7 8 8 8 7 7 6 6 5 5 4 4 4 4 4 4 5 5 5 5 6 6 6 5 6 6 6 7 8 9 9 8 8 7
8 9 9 9 8 8 7 8 7 8 8 8 8 7 7 7 6 6 6 6 5 5 5 5 5 5 5 5 6 6 6 7 7 6 6 6 7 8 8 9 9 8 7
9 9 8 9 9 8 8 8 8 8 8 8 9 8 7 7 7 7 7 7 7 6 6 6 6 6 6 6 6 6 7 8 8 7 7 8 7 8 8 9 9 8 8
9 9 9 9 9 9 8 8 8 8 9 9 9 9 9 9 8 8 8 8 8 8 7 7 7 7 7 7 7 7 8 8 8 7 7 8 8 9 8 8 8 8 8
10 9 9 8 9 9 9 8 8 8 9 10 9 9 8 8 8 8 8 8 9 9 8 8 8 8 8 8 8 8 9 8 9 9 8 8 9 9 9 9 9 9 9
10 9 9 9 9 9 9 9 9 9 10 10 9 9 9 9 9 9 9 8 9 9 9 9 8 8 8 8 9 9 10 10 9 9 8 9 10 10 9 10 10 10 10
11 10 10 10 9 10 10 10 10 10 10 10 10 9 9 9 10 10 9 9 9 9 8 8 9 9 9 9 9 10 10 10 9 10 10 10 10 10 11 10 10 10 10
11 10 10 10 10 10 11 11 11 11 11 10 10 10 10 10 10 10 10 10 9 10 10 10 10 10 10 10 10 10 10 10 10 10 11 11 11 11 11 11 11 10 10
11 11 11 11 11 11 11 11 11 11 11 11 11 11 11 11 10 10 11 10 10 11 11 11 11 11 11 11 11 11 10 10 10 10 10 11 11 11 11 11 11 11 10
11 11 12 13 12 13 12 12 12 12 12 11 11 11 11 11 10 11 11 11 11 12 12 12 12 12 12 12 12 12 12 11 11 11 12 11 11 11 11 12 12 11 11
12 12 12 13 13 13 12 12 12 12 12 12 12 12 12 11 11 11 11 11 12 13 13 13 13 13 13 12 13 13 13 13 12 13 12 12 12 12 12 12 12 12 12
12 12 13 13 14 13 12 13 13 13 12 12 13 13 13 13 12 12 12 12 13 14 14 14 14 14 14 14 14 14 14 14 13 13 13 12 13 12 12 12 13 13 12
13 13 14 14 13 13 12 13 13 13 13 13 13 13 14 13 14 14 13 14 14 14 14 13 14 14 15 15 15 15 15 15 15 15 15 14 14 13 14 14 13 13 13
14 14 15 14 14 14 13 13 13 13 13 13 13 14 14 14 14 15 15 14 15 14 14 14 14 14 15 15 15 15 15 16 15 15 15 15 15 15 15 15 15 15 15
16 15 15 15 15 15 14 14 14 14 14 13 14 14 14 14 14 15 15 15 15 15 15 15 15 14 15 15 15 16 16 16 17 17 16 16 17 16 16 16 16 16 16
17 16 15 15 15 15 15 15 15 15 14 14 14 14 15 15 14 14 14 15 16 16 16 15 15 16 15 15 16 16 17 17 17 17 17 17 17 17 17 17 17 17 18
17 16 15 15 16 16 16 15 16 16 14 14 14 15 15 15 15 15 16 17 17 17 16 16 16 16 16 16 17 17 17 18 18 18 18 18 19 19 18 19 19 18 18
17 16 16 16 16 17 16 16 16 16 14 14 15 15 15 15 16 16 17 18 17 17 17 17 17 17 18 18 18 18 18 19 19 19 19 20 20 20 20 21 21 20 20
16 16 16 16 16 16 17 16 17 16 15 14 15 16 16 16 16 17 17 18 17 17 18 18 18 17 18 19 18 18 19 19 20 20 20 20 21 22 22 22 21 21 21
16 17 16 16 16 16 17 17 17 17 15 15 15 16 16 16 17 17 18 18 19 19 19 19 19 19 19 20 20 20 20 20 20 20 21 21 22 23 23 23 23 23 23
17 17 16 16 16 17 17 17 17 17 16 16 16 16 17 17 18 18 18 19 19 20 20 19 20 20 20 21 21 22 22 21 21 22 23 23 23 23 24 24 24 25 25
17 16 16 17 17 17 17 17 17 17 16 17 17 17 18 18 18 19 19 20 19 19 20 19 20 20 20 20 21 22 22 21 21 23 24 24 23 24 24 25 25 26 26
17 18 18 18 18 18 18 18 18 17 17 17 18 18 19 19 18 19 19 19 19 19 18 19 19 20 20 20 21 22 22 22 22 23 23 24 24 25 25 26 27 27 28
17 19 19 18 18 19 19 19 19 18 18 18 17 17 18 18 18 19 20 20 20 20 20 19 20 20 21 22 22 22 22 22 22 23 24 25 26 27 27 27 27 27 28
18 18 19 19 19 20 20 20 20 19 19 18 18 18 18 19 19 19 20 21 22 21 21 21 22 22 22 23 23 23 23 24 24 24 24 25 26 27 28 28 28 28 27

GEFSSE_500_meanwind_264.txt.gz
Wind_Speed
10 9 8 8 7 7 7 6 6 5 5 4 4 5 4 4 4 4 3 3 3 2 3 3 3 3 3 3 4 4 3 4 3 5 4 5 6 7 7 7 6 7 7
10 9 8 8 7 7 7 6 6 5 4 4 4 5 5 5 4 4 3 3 3 3 3 4 4 4 4 4 4 4 4 4 4 4 4 5 6 7 6 6 6 6 7
10 9 8 8 7 7 6 6 5 5 5 4 4 5 5 4 5 4 4 4 4 3 4 4 4 4 4 4 4 4 5 5 4 4 4 5 6 7 6 6 6 6 6
10 9 9 9 8 7 7 6 6 5 5 4 5 5 5 5 5 5 5 5 5 5 5 5 5 4 4 5 5 5 6 6 6 5 6 6 6 7 7 6 7 6 7
11 10 9 9 8 7 7 7 7 6 6 5 5 5 5 5 5 5 6 5 6 6 6 6 6 6 6 6 6 6 6 6 7 7 6 6 6 6 7 6 7 8 8
11 10 9 9 9 8 8 8 8 7 7 6 5 5 5 5 6 6 6 5 6 6 7 7 7 6 6 7 7 7 7 7 7 7 7 7 6 7 7 7 8 8 8
11 10 9 9 8 8 8 8 8 7 7 6 6 5 6 6 7 7 6 6 7 7 7 7 7 7 6 6 7 7 8 8 8 8 8 8 8 8 8 8 9 9 8
12 11 10 10 9 8 9 8 8 8 7 7 6 6 6 7 7 8 7 7 7 8 8 8 8 8 8 7 7 7 8 8 8 8 8 8 8 9 10 9 9 9 9
12 12 10 10 9 8 8 9 8 8 7 7 7 7 8 8 8 8 7 7 7 8 8 9 9 8 8 8 8 8 9 9 9 9 9 9 9 10 10 10 10 10 10
12 12 11 10 9 8 9 9 9 9 8 8 8 8 8 8 8 7 7 8 8 8 8 8 8 9 9 9 9 8 9 10 10 10 10 10 10 10 11 12 11 10 10
12 12 12 11 9 9 9 9 10 10 10 9 8 8 8 8 8 8 8 8 9 9 9 9 9 10 10 10 10 10 10 10 10 10 10 10 11 11 11 12 12 12 12
13 13 13 11 10 10 10 10 11 11 10 10 8 9 9 9 9 8 9 10 9 10 10 10 10 11 11 11 11 11 11 11 11 11 11 11 11 11 11 12 12 12 13
13 13 13 12 11 11 11 11 11 11 11 11 10 10 10 10 11 10 10 11 11 11 11 11 12 12 11 11 12 12 12 13 13 13 13 12 12 11 11 12 12 12 13
14 14 13 12 12 12 12 12 12 12 12 12 12 11 12 12 12 12 13 13 12 12 12 12 12 12 12 12 12 13 14 14 14 14 15 14 14 13 13 13 13 14 14
14 15 14 13 12 12 12 12 12 12 13 13 12 12 13 12 13 13 14 14 14 13 13 13 13 13 13 13 13 14 15 15 16 16 16 16 16 15 15 15 15 15 14
14 14 14 14 14 13 12 12 12 13 13 13 13 13 13 13 13 13 14 14 14 14 14 14 15 14 13 14 14 14 16 17 17 17 17 18 18 17 17 16 16 16 16
14 14 14 15 16 15 14 14 13 14 14 14 14 14 14 14 14 13 14 14 14 14 14 14 16 15 15 15 15 16 16 17 18 18 19 19 18 18 18 18 18 18 18
15 15 16 16 16 15 15 14 14 14 14 14 14 14 15 14 14 14 15 15 15 15 15 16 16 16 17 17 17 17 18 18 19 19 19 20 19 18 18 18 19 19 19
16 16 17 17 17 17 15 15 14 14 14 15 15 14 15 15 16 16 15 16 16 16 16 17 17 17 17 17 18 18 19 19 19 19 19 20 20 20 20 19 20 20 20
16 17 17 17 17 16 15 15 15 15 15 15 16 15 15 16 16 16 16 17 17 18 18 18 18 17 18 18 19 19 19 19 19 20 20 20 21 21 21 21 20 21 21
17 17 17 18 17 16 16 16 15 15 16 16 16 16 16 16 17 17 17 18 19 19 19 19 19 18 19 19 20 20 20 21 20 20 21 22 23 23 23 22 22 22 22
18 18 19 18 17 16 16 15 15 15 16 16 16 16 17 18 18 18 19 19 19 20 20 20 20 20 20 20 21 21 21 21 21 22 22 22 24 24 23 24 23 22 22
18 18 18 19 18 17 16 16 16 16 16 16 17 17 18 19 19 19 19 19 19 20 20 21 21 21 21 21 21 21 21 21 23 23 24 23 24 23 23 24 24 24 25
18 19 19 19 19 18 17 17 17 17 17 18 18 17 17 18 18 18 18 18 19 20 21 21 21 22 21 21 21 21 21 22 23 24 25 25 24 24 24 25 25 25 26
19 19 19 18 18 17 18 17 17 17 17 17 17 17 17 18 18 18 18 18 19 21 21 21 22 23 23 23 23 22 22 22 23 24 25 26 26 26 26 26 26 26 26
19 19 19 18 18 19 19 17 17 17 18 18 18 19 19 19 19 18 18 19 20 21 21 21 22 23 24 24 25 24 24 24 24 25 25 25 25 25 26 27 27 27 27

GEFSSE_500_meanwind_270.txt.gz
Wind_Speed
7 6 5 5 4 4 3 3 2 2 1 1 1 1 1 1 1 1 1 1 1 2 1 1 2 2 2 3 3 3 4 4 3 2 3 4 4 4 5 5 6 6 6
6 6 5 5 4 4 3 3 2 2 1 1 1 0 0 1 0 0 1 1 1 1 1 1 2 2 2 2 3 3 3 4 3 3 2 3 4 5 5 5 6 6 6
7 6 6 5 4 4 4 3 3 2 1 1 2 1 1 0 0 1 1 1 1 1 1 2 2 2 2 2 3 4 4 3 3 3 2 3 4 4 6 6 6 6 5
7 7 6 6 5 4 4 4 4 3 2 2 2 2 2 2 1 1 2 1 2 2 2 2 2 2 2 3 3 4 4 4 3 3 3 3 4 4 5 7 7 7 6
8 7 7 6 5 5 4 4 4 4 4 3 3 3 3 3 2 2 2 2 2 2 3 3 3 3 3 3 4 5 5 5 4 4 4 4 5 5 6 7 7 8 7
8 7 7 6 6 5 5 5 5 5 4 4 3 3 4 4 3 3 3 3 3 3 4 4 4 4 4 4 5 5 5 5 5 5 5 6 6 6 6 7 7 8 8
9 8 7 6 6 5 5 5 5 5 5 4 4 4 5 4 4 4 4 4 4 4 4 4 5 5 5 6 6 6 6 6 6 6 7 7 7 7 7 7 7 7 9
9 9 8 6 6 6 6 5 5 5 5 5 5 5 4 4 4 4 4 5 5 6 5 5 6 6 6 6 7 7 7 7 7 7 8 8 8 8 8 8 8 8 8
9 9 8 8 7 6 6 5 5 5 5 5 6 5 5 5 5 5 4 4 5 6 6 6 7 7 7 7 7 8 8 8 9 8 8 9 9 9 9 9 9 9 9
9 9 8 8 8 7 7 6 6 6 5 5 6 6 6 6 6 6 5 5 5 6 6 6 6 7 7 8 8 8 8 9 10 10 9 9 9 9 10 10 10 9 10
10 9 9 9 8 8 8 7 7 6 6 7 7 7 6 6 6 6 6 6 6 6 6 7 7 8 8 8 8 9 9 9 10 11 11 10 10 10 11 10 11 11 11
11 10 9 9 9 9 9 8 8 8 7 7 7 7 7 7 7 7 7 7 8 8 8 8 8 8 9 9 10 10 10 10 10 11 12 12 12 12 12 12 11 11 11
11 11 10 10 10 10 10 9 9 9 8 8 8 7 8 8 8 8 9 9 9 10 10 10 10 10 10 10 11 11 11 11 12 12 12 13 13 13 12 12 12 13 13
13 13 12 11 11 10 10 9 9 9 9 8 9 8 8 9 10 10 10 10 11 11 11 11 11 11 11 12 12 12 13 13 13 13 13 14 14 14 13 14 14 14 14
14 14 13 12 11 11 10 9 9 9 9 9 9 9 9 10 10 11 11 12 12 13 12 13 12 12 12 12 12 13 13 14 14 14 14 14 15 14 14 14 14 14 14
15 15 14 13 12 12 11 11 10 10 10 10 9 9 10 11 11 11 12 13 13 13 13 13 13 13 13 14 14 14 14 14 15 16 16 16 16 15 15 15 15 15 16
16 15 14 14 14 13 12 12 11 11 11 11 11 11 12 12 12 12 12 13 13 13 14 14 14 15 15 15 15 15 16 16 16 16 16 17 17 17 17 16 17 16 17
16 16 15 15 14 14 14 13 12 12 12 12 12 13 13 13 13 13 13 13 14 14 14 15 16 16 17 16 16 16 16 17 17 17 17 17 18 18 18 18 19 18 18
17 16 15 15 15 15 15 14 13 13 14 14 13 13 14 13 13 13 13 14 14 14 15 15 16 16 17 17 17 17 17 18 18 18 18 18 19 19 19 19 20 20 19
17 17 16 16 15 15 15 15 14 14 15 14 14 14 15 15 15 14 14 14 15 15 15 16 17 17 17 18 19 19 19 19 19 19 19 19 20 21 20 20 20 20 20
18 17 17 17 17 16 16 16 15 15 15 16 16 16 16 16 15 15 15 15 15 16 16 16 17 17 18 19 19 19 20 20 21 21 21 21 21 21 22 22 22 21 21
18 18 18 17 17 17 16 16 16 16 16 16 16 16 16 15 14 14 15 15 16 17 17 18 18 19 19 20 20 20 21 22 22 22 22 22 23 23 23 23 24 24 23
18 18 18 18 17 17 17 17 17 16 16 16 17 17 17 16 15 16 16 16 16 17 17 17 18 20 20 21 21 21 21 22 23 22 22 23 24 24 24 25 25 26 26
18 18 19 19 18 18 18 18 17 17 17 17 17 17 17 17 16 16 17 18 18 18 17 17 17 18 20 21 22 22 22 23 23 23 24 24 25 25 26 26 27 27 27
18 18 18 18 19 19 19 18 18 18 18 18 18 18 19 19 18 17 18 19 18 18 18 18 17 17 18 20 21 22 23 23 24 24 24 25 26 26 27 27 27 27 27
19 19 19 19 19 19 19 19 18 18 18 18 18 19 19 20 19 19 19 20 20 19 18 17 17 18 18 19 20 21 23 24 24 25 26 27 26 27 27 28 28 28 27